map of ESM home
ESM - Airport
Location
City:  Tachina, Esmeraldas, Ecuador
Near (Alt.):Esmeraldas
Name:Carlos Concha Torres International Airport
Old (Alt.):General Rivadeneira Airport
ICAO:SETN
IATA:ESM

Details
Type:Airport (Aerodrome, Airfield)
Use:International (customs port of entry)
Latitude:058'43"N (0.978519)
Longitude:7937'36"W (-79.626649)
Datum:WGS 1984
Elevation:32 ft (10 m)
Variation:3.09W (WMM2015 magnetic declination)
-0.16 annual change
Runways:1
Longest:7874 × 148 ft (2400 × 45 m), paved

Time
Time Zone:UTC-5
Local Time:

Weather
METAR:SETN 122300Z 26007KT 9999 FEW016 BKN030 BKN080 26/24 Q1009 A2981

Related Locations
Nearby:
Farthest:WIMG: 12449 mi / 20035 km
Padang [Tabing Airport], SB, ID

Find:

   beyond  
but within

Other Information
Maps:
NOTAMs:
Links:
Sources:

  
  • flag of Ecuador
  • flag of Esmeraldas
  

Airport Diagram

Airport diagram for ESM

Larger airport diagram (OBSOLETE) from NGA

Sectional Chart

Flight Planning
at skyvector.com

Satellite Image

Google Maps Satellite view

 

Copyright © 2004-2018 Karl L. Swartz. All rights reserved.
The Great Circle Mapper name and logo are trademarks of the Great Circle Mapper.
All other trademarks mentioned herein belong to their respective owners.
Please see credits for attibutions and further copyright information.

  Follow gcmap on Facebook Follow gcmap on Twitter Follow gcmap on Google+ GCmap on LinkedIn

hCard Microformat

Geo Microformat